Starlink 32376

operational
NORAD ID: 61707 Int'l Des: 2024-196 Owner: SPXS Country: US Constellation: starlink
LEOCIRCULAR

About Starlink 32376

Description loading...

Live Position

Loading 3D Globe...

Upcoming Passes

Altitude History

Altitude vs Time

uPlot chart will show altitude changes over time

Two-Line Element Set

1 61707U 24196A 25350.36383670 -.00000615 00000-0 -86381-5 0 9999
2 61707 53.1604 128.0556 0001044 94.3259 265.7861 15.30191676 64419
Epoch: Dec 16, 2025 • Age: 15 hours

Current Status

Altitude 488.6 km
Velocity 7.62 km/s
Sub-Earth Point -38.88°S, 0.49°W
Launch Date Oct 30, 2024
Age 1.1 years
Type internet

Technical Details

Classification Payload
Mass 730.00 kg
Dry Mass 700.00 kg
Total Mass 730.00 kg
Length 0.30 m
Diameter 4.10 m
Span 29.00 m
Shape Box + pan
Manufacturer SPXS
Bus Type Starlink V2M
Phase Status In Orbit
Owner/State SPXS/US

Large Constellations

Loading constellations...